User: anonymous   Login
Location: La Pernelle
(49.6188°N, 1.2999°W)
Time: 23:42:37
(UTC+00:00)
Language:

Cosmos 2061 Rocket - Orbit

View from above orbital plane
View from above orbital plane
View from above satellite
View from above satellite

Ground track
Ground track

The orbit data is extracted from the following two-line orbital elements,

1 20528U 90023B   21262.53900045  .00000031  00000-0  16971-4 0  9992
2 20528  82.9402 354.2522 0032348  25.4248 345.7010 13.72886609578170
Epoch (UTC): 19 September 2021 12:56:09
Eccentricity: 0.0032348
inclination: 82.9402°
perigee height: 965 km
apogee height: 1013 km
right ascension of ascending node: 354.2522°
argument of perigee: 25.4248°
revolutions per day: 13.72886609
mean anomaly at epoch: 345.7010°
orbit number at epoch: 57817

The dashed part of the orbit path shows where the satellite is in the earth's shadow,  

DLR